Location: Rometta
(44.2000°N, 10.0500°E)
Time: 22:56:54
(UTC+00:00)

PSLV R/B - Pass Details

Date: 20 January 2021
Orbit: 567 x 598 km, 98.2° (Epoch: 04 March)

Event Time Altitude Azimuth Distance (km) Brightness Sun altitude
Exits shadow 17:42:49 11° 21° (NNE) 1,886 6.2 -15.8°
Maximum altitude 17:46:51 60° 101° (ESE) 686 4.0 -16.5°
Drops below altitude 10° 17:51:00 10° 182° (S) 1,931 6.8 -17.3°
Sets 17:53:11 0° 186° (S) 2,827 7.7 -17.6°
